CMS-01 (47256 NORAD) Tracking and Keplerian Element Data

This shows tracking and keplerian element data for the satellite.

Feedback or suggestion? Click here.




ElementValue
Catalog47256
NameCMS-01
Epoch Orbit40
Epoch Day20.58194764
Epoch Year2021
RAAN249.7555
Inclination0.0413
Eccentricity0.0007774
Argument of Perigee21.1957
Mean Anonmoly141.7125
Mean Motion1.00296575
Decay Rate-1.62E-06
L11 47256U 20099A 21020.58194764 -.00000162 00000-0 00000+0 0 9992
L22 47256 0.0413 249.7555 0007774 21.1957 141.7125 1.00296575 401

Live tracking and technical data element details for CMS-01 (NORAD 47256). CMS-01 can be tracked NOW for your location showing map with azimuth and elevation plus other details from your city location.

Track the satellite on the map from your city or location and see movement details for azimuth, elevation, latitude, longitude, range, height, and movement on the map or in text.







IsCatalogInMostPopularTable: catalog: 47256, numindb: 13
Update: records affected: 1



GetName: 47256 CMS-01

Hit Count: updated at: Sat, 23 Jan 2021 16:36:17 GMT